Theta_e
327 327 327 328 328 328 328 329 329 329 329 329 328 328 328 328 328 328 328 328 328 327 327 327 327 327 327 327 327 326 326 326 326 325 325 324 324 325 325 325 324 324 324 324 324 325 325 325 325 325 325 326 327 328 327 327 327 327 326 325 324 323 323 324 324 324 324 324 324 324 322 321 320 319 318 318 318 318 317 317 316 316 315 315 315 314
327 327 327 327 328 328 328 329 329 329 328 328 329 329 329 328 328 328 328 328 328 328 328 328 328 328 328 327 327 327 327 327 327 327 326 325 325 324 324 325 325 325 325 325 325 325 325 325 325 326 326 327 327 328 327 327 326 325 325 325 324 324 324 324 324 324 324 324 324 323 322 320 319 318 318 318 318 317 317 316 315 314 314 313 313 311
327 327 327 327 327 327 328 328 329 328 328 328 328 329 329 328 328 328 328 328 328 328 328 328 328 328 327 327 327 327 327 327 327 327 326 326 325 325 325 325 325 325 325 325 325 325 325 325 326 326 326 327 327 327 327 326 325 324 324 324 324 324 324 324 324 324 324 324 323 322 321 320 319 318 318 318 317 317 316 315 314 313 312 311 309 308
327 326 326 326 326 326 327 327 328 328 327 327 328 328 328 328 328 328 328 327 327 328 328 328 327 327 327 327 327 326 327 327 327 326 326 326 325 325 325 326 326 326 326 326 325 325 325 325 326 326 327 327 327 326 326 326 326 325 325 325 324 324 324 324 324 324 324 323 322 321 320 319 319 318 318 317 317 316 315 314 314 312 310 308 306 305
326 326 326 326 326 326 326 326 327 327 327 327 327 327 327 327 327 328 328 328 328 327 328 327 327 327 326 326 326 326 326 326 326 326 325 325 325 325 325 325 326 326 326 326 326 325 325 325 326 326 327 327 327 326 326 326 326 326 325 325 324 324 324 324 323 323 322 321 320 320 319 319 319 318 317 317 316 315 315 314 313 311 309 306 304 302
326 326 327 327 326 326 326 327 327 327 327 327 327 327 327 327 327 327 327 327 327 327 327 327 327 326 326 326 326 326 326 325 325 325 325 325 325 325 325 325 325 325 326 326 326 326 325 325 326 326 326 327 327 326 326 326 326 325 325 325 324 324 324 324 323 321 319 318 318 318 318 318 318 317 317 316 315 314 314 313 312 310 308 305 303 301
326 326 326 327 326 326 326 327 327 327 327 328 328 327 327 327 327 327 327 327 327 327 327 327 326 326 326 325 325 325 325 325 324 324 324 324 324 324 324 324 324 324 324 324 325 325 325 325 326 326 326 326 326 326 326 326 325 325 325 324 324 325 324 323 321 319 317 316 317 317 317 317 317 316 316 315 314 313 312 311 310 308 306 304 302 301
326 326 326 326 326 326 326 326 326 327 327 327 327 327 326 326 326 326 326 326 326 326 326 326 325 325 325 324 324 324 324 323 323 323 324 324 324 324 324 324 323 323 323 323 323 323 324 324 325 325 325 325 325 325 325 325 325 325 325 324 324 324 323 321 318 316 315 315 316 316 316 316 315 315 315 314 313 312 311 309 308 307 305 303 301 300
325 325 325 325 326 326 326 326 326 325 325 325 325 325 324 324 324 324 324 324 324 324 324 324 323 323 322 322 322 322 322 322 322 322 322 323 323 323 323 322 322 322 321 321 320 320 320 321 321 322 322 322 323 323 323 324 324 324 324 323 322 321 319 317 315 314 315 315 315 315 315 315 315 314 314 313 312 311 309 308 306 305 304 302 301 299
324 324 325 325 325 325 325 325 324 324 324 323 322 322 322 322 322 322 322 321 321 321 321 321 320 320 320 320 320 320 320 321 321 321 321 322 322 322 321 321 320 319 319 318 317 317 316 316 316 316 316 317 319 320 321 322 322 322 321 320 318 317 315 314 314 314 315 315 315 315 315 314 314 314 313 312 311 309 307 306 305 304 303 302 300 299
323 324 324 324 324 324 323 323 322 322 322 321 320 320 319 319 319 319 319 318 318 318 318 318 318 317 317 318 318 318 319 319 320 320 320 320 321 321 320 319 318 317 316 315 314 313 312 311 311 310 311 312 314 316 318 319 319 318 316 315 314 314 313 313 314 314 314 314 314 314 314 314 313 313 312 311 309 308 306 304 303 303 302 301 299 298
323 323 323 323 323 323 322 321 321 320 319 318 318 317 317 317 317 317 316 316 316 316 316 316 316 316 316 316 316 316 317 317 318 319 319 319 319 318 318 317 316 314 313 312 310 309 309 308 308 308 308 309 311 313 314 314 314 313 313 312 312 313 313 313 314 314 314 314 313 313 313 312 312 311 310 309 307 306 304 303 302 301 300 299 298 296
322 322 321 321 321 320 320 320 319 318 317 316 316 316 316 316 316 315 314 314 314 314 314 314 314 314 314 314 314 314 314 314 315 316 316 315 315 314 313 312 311 310 310 309 308 308 308 308 308 308 308 309 310 311 311 312 312 312 312 312 312 313 313 313 313 313 313 312 312 312 311 311 310 309 308 307 306 305 303 302 301 300 299 298 297 296
321 320 320 319 319 318 318 317 317 316 316 315 315 314 314 314 313 313 313 312 312 312 312 312 312 312 312 312 312 311 311 311 311 311 311 311 310 309 309 308 308 308 308 308 308 308 308 308 308 308 309 309 310 310 311 311 311 311 312 312 312 312 312 312 312 312 311 311 310 310 309 309 308 307 307 306 305 303 302 302 301 300 298 297 296 296
319 319 318 317 316 316 315 315 314 314 314 314 313 312 312 311 311 311 311 311 311 311 311 311 311 311 310 310 309 309 309 309 309 308 308 308 308 308 308 308 307 307 308 308 308 308 309 309 309 309 309 310 310 310 310 311 311 311 311 311 312 311 311 311 311 310 310 309 308 308 307 306 306 306 305 304 303 302 301 300 299 298 297 296 296 295
317 316 315 315 314 314 314 313 313 312 312 312 311 311 310 310 310 310 310 310 310 310 310 309 309 309 309 308 308 308 308 307 307 307 307 307 307 307 308 308 308 308 308 309 309 309 309 310 310 310 310 310 310 310 310 310 310 310 311 311 310 310 310 310 309 309 308 307 307 306 305 304 304 304 303 302 301 300 300 298 297 296 295 295 295 295
315 315 314 314 313 313 313 313 312 312 311 310 310 309 309 309 309 309 309 309 309 309 309 309 308 308 308 307 307 307 307 307 307 307 307 308 308 308 308 309 309 309 309 310 310 310 310 310 310 310 310 310 310 310 309 309 309 309 309 309 309 309 308 308 307 307 306 306 305 304 303 302 302 302 301 300 299 298 297 296 295 295 295 295 295 295
314 314 314 314 314 313 313 313 312 312 311 310 310 309 308 308 308 308 308 308 308 308 308 308 308 308 308 308 307 307 307 307 307 307 308 308 308 308 309 309 309 309 310 310 310 310 310 310 310 310 310 309 309 309 309 308 308 308 308 308 308 307 307 306 306 305 305 304 303 302 301 300 300 299 299 298 297 296 295 295 295 294 294 294 295 295
314 313 314 314 314 314 314 314 313 313 312 311 311 310 309 308 307 307 307 307 307 307 307 307 308 308 308 309 308 308 308 308 308 308 308 309 309 308 309 309 309 309 309 310 310 310 310 309 309 309 309 309 308 308 307 307 307 307 307 307 306 306 306 305 304 304 303 303 302 301 300 299 298 298 297 296 296 295 295 294 294 294 294 294 294 295
313 312 312 313 313 313 313 313 313 313 313 313 312 311 310 309 308 307 307 306 306 306 307 307 307 307 308 308 308 308 308 308 308 308 308 308 308 308 308 308 308 308 308 308 308 308 308 308 308 308 308 307 307 307 306 306 306 306 306 306 305 305 305 304 304 303 303 302 302 301 300 299 298 298 297 296 295 295 295 294 294 294 294 294 295 295
313 313 312 312 312 312 313 313 313 313 313 313 313 313 312 311 310 309 308 308 307 307 307 307 307 307 307 307 307 307 307 307 307 307 307 307 308 308 307 308 308 307 307 307 307 307 307 306 306 306 306 306 306 306 306 306 306 306 306 305 305 305 304 304 304 303 303 302 301 301 300 299 298 297 297 296 295 295 295 294 294 294 294 294 295 295
312 312 312 312 312 312 313 313 313 313 313 313 313 313 313 313 312 311 310 309 309 308 308 307 307 306 306 306 306 306 306 306 306 306 306 307 307 307 307 307 307 306 306 306 306 306 306 306 306 306 306 306 306 306 306 306 306 306 305 305 305 304 304 303 303 302 302 301 301 300 299 299 298 297 297 296 295 295 295 295 294 294 294 295 295 295
311 311 311 311 311 312 312 312 312 312 312 313 313 313 313 313 312 311 311 310 310 309 308 308 307 307 307 306 306 306 306 306 306 306 306 306 307 306 306 306 306 305 306 306 306 306 306 306 306 306 306 306 306 306 306 305 305 305 305 304 304 303 303 302 302 301 301 300 300 299 299 298 298 297 296 296 295 295 295 295 295 295 295 295 295 295
311 311 311 311 311 311 311 311 311 311 311 312 312 312 312 312 312 311 311 310 310 309 309 308 308 307 307 307 307 307 306 306 306 306 306 306 306 306 306 306 305 305 305 306 306 306 306 306 305 305 306 305 305 305 305 305 304 304 304 303 302 302 301 301 300 300 300 299 299 298 298 297 297 296 296 296 295 295 295 295 295 295 295 295 295 295
310 310 310 310 310 310 310 310 310 310 310 310 311 311 312 312 312 312 312 311 310 309 309 308 308 308 307 307 307 307 307 307 306 306 306 306 306 306 306 305 305 304 305 305 306 306 305 305 305 305 305 305 304 304 304 303 303 303 302 302 301 300 300 300 299 299 298 298 298 297 297 297 296 296 295 295 295 295 295 295 295 295 294 294 294 294
309 309 309 309 310 310 310 310 310 310 310 310 310 310 311 311 311 311 310 310 310 309 309 308 308 308 308 307 307 307 307 307 306 306 306 306 306 306 306 305 304 304 305 305 305 305 305 304 304 304 304 304 303 303 303 302 302 301 301 300 300 299 299 298 298 298 297 297 297 296 296 296 295 295 295 295 294 294 294 294 294 294 294 294 294 294
308 309 309 309 309 309 309 309 310 310 310 310 310 310 310 310 311 311 310 310 310 310 309 309 308 308 308 308 307 307 307 307 306 306 306 306 306 306 306 305 305 304 304 304 305 305 304 304 303 303 303 303 302 302 301 301 300 300 299 299 298 298 298 297 297 296 296 296 296 295 295 295 294 294 294 294 294 294 294 294 294 294 294 294 294 294
308 309 309 309 309 309 309 309 309 310 310 310 310 310 310 310 310 310 310 310 309 309 309 309 309 309 308 308 307 307 307 307 306 306 306 306 306 305 305 306 305 305 304 304 304 304 304 303 302 302 302 302 301 301 300 299 299 298 298 298 297 297 297 296 296 295 295 295 295 294 294 294 294 294 294 294 294 294 294 294 294 294 294 294 294 294
309 309 309 309 309 309 309 309 309 309 310 310 310 310 310 310 310 310 309 308 309 309 308 308 308 308 308 308 307 307 307 306 306 306 306 305 305 305 305 305 305 305 304 304 303 303 303 302 301 301 301 300 300 299 299 298 298 297 297 297 296 296 296 295 295 295 294 294 294 294 294 294 294 294 294 294 294 294 294 294 294 294 294 294 294 294
308 308 308 308 308 308 308 308 309 309 309 309 309 309 309 309 309 309 308 307 307 307 308 308 308 308 307 307 307 306 306 306 305 305 305 305 304 304 304 305 304 304 303 303 302 302 301 301 300 300 300 299 299 299 298 298 297 297 296 296 296 295 295 295 294 294 294 294 294 294 294 294 294 294 294 294 294 294 294 294 294 294 294 294 294 294
307 307 307 307 307 307 307 307 308 308 308 308 309 309 309 309 308 308 308 307 307 306 306 307 307 307 306 306 306 306 306 305 305 305 305 304 303 303 303 304 303 302 302 302 301 301 300 300 300 300 300 299 298 298 298 297 297 296 296 295 295 295 294 294 294 294 294 294 294 294 294 294 294 294 294 294 294 294 294 294 294 294 294 294 294 295
306 306 305 305 305 305 306 306 306 307 307 307 308 308 308 308 308 308 308 307 307 306 305 305 305 305 305 305 305 305 305 305 304 304 304 303 302 302 302 302 302 301 301 301 301 300 300 299 299 299 299 298 298 297 297 297 296 295 295 295 294 294 294 294 294 293 293 293 293 293 293 293 293 293 293 294 294 294 294 294 294 294 294 294 294 294
305 305 304 304 304 304 304 304 305 305 305 306 306 306 307 307 307 307 307 307 307 306 305 305 304 304 304 303 303 303 303 303 303 303 302 301 301 301 301 301 301 300 300 300 300 299 299 299 299 298 298 298 297 297 296 296 295 295 294 294 293 293 293 293 293 293 293 293 293 293 293 293 293 293 293 293 293 294 294 294 294 294 294 294 294 294
305 304 304 304 304 304 303 303 303 303 304 304 305 305 305 306 306 306 306 306 306 305 305 304 304 303 303 302 302 302 302 302 302 301 301 300 300 300 300 300 300 299 299 298 298 298 298 298 298 297 297 296 296 296 295 295 294 293 293 293 292 293 293 292 292 292 292 292 292 293 293 293 293 293 293 293 294 294 294 294 294 294 294 294 294 294
305 305 304 304 303 302 302 302 302 302 302 303 303 304 304 304 304 304 304 304 304 304 304 304 303 303 302 301 300 300 300 300 300 300 299 299 298 299 299 299 298 298 297 297 297 296 296 296 296 296 295 295 294 294 294 294 293 292 292 292 292 292 292 292 292 292 292 292 292 292 293 293 293 293 293 293 294 294 294 294 294 294 294 293 293 293
304 304 303 303 302 301 300 300 300 300 301 301 302 302 302 302 302 302 302 302 302 302 302 302 302 302 302 301 300 300 299 299 299 298 298 297 297 298 298 298 297 296 296 295 295 295 295 295 294 294 294 293 293 293 293 292 292 292 291 291 291 291 292 292 292 292 292 292 292 293 293 293 293 293 293 293 294 294 294 293 293 293 293 293 293 293
302 302 301 301 300 299 299 298 298 298 298 299 300 300 300 300 300 300 300 300 300 300 300 299 299 299 299 299 299 298 298 298 297 297 296 296 296 296 296 296 295 295 294 294 294 294 293 293 293 293 293 292 292 292 292 292 291 291 291 291 291 291 291 291 292 292 292 292 292 293 293 293 293 293 293 293 293 293 293 293 293 293 293 293 293 293
300 299 298 298 297 297 296 296 296 296 296 297 297 297 297 297 297 297 296 297 297 296 296 296 296 296 295 295 295 295 295 296 295 295 295 294 294 294 294 294 294 293 293 293 292 292 292 292 292 292 292 291 291 291 291 291 291 291 291 291 291 291 291 291 292 292 292 292 292 293 293 293 293 293 293 293 293 293 293 293 293 293 293 292 292 292
297 296 295 295 294 294 294 294 294 294 294 294 294 294 294 294 293 293 293 293 293 293 293 293 292 292 292 292 292 292 293 293 293 293 293 293 293 293 292 292 292 292 292 291 291 291 291 291 291 291 291 291 291 291 291 291 291 291 291 291 291 291 291 291 292 292 292 292 292 293 293 293 293 293 293 293 293 293 293 293 292 292 292 292 292 292
294 293 293 292 292 292 292 292 292 292 291 291 291 291 291 291 291 291 291 291 291 291 291 291 291 291 290 291 291 291 291 291 291 292 292 292 292 292 291 291 291 291 291 291 291 291 291 291 291 291 291 290 291 291 291 291 291 291 291 291 291 291 291 291 292 292 292 292 292 292 293 293 293 293 293 293 293 293 293 292 292 292 292 292 291 291
293 292 291 290 290 291 290 290 290 290 290 290 290 290 290 290 290 290 290 290 290 290 290 290 290 290 290 290 290 290 290 290 290 291 291 291 291 291 291 291 291 291 291 290 290 290 290 290 290 290 290 290 290 290 291 291 291 291 291 290 291 291 291 291 291 292 292 292 292 292 292 293 293 293 293 293 293 292 292 292 292 292 291 291 291 291
292 291 291 290 290 290 290 289 289 289 289 289 289 289 289 289 289 289 289 289 289 289 289 289 289 289 290 290 290 290 290 290 290 290 290 291 290 290 290 290 290 290 290 290 290 290 290 290 290 290 290 290 290 290 290 291 291 291 291 291 291 291 291 291 292 292 292 292 292 292 292 292 292 292 293 292 292 292 292 291 291 291 291 291 291 290
291 291 290 290 290 289 289 289 289 289 289 289 289 289 289 289 289 289 289 289 289 289 289 289 289 289 290 290 290 290 290 290 290 290 290 291 290 290 290 290 290 290 290 290 290 290 290 290 290 290 290 290 290 291 291 291 291 291 291 291 291 292 292 292 292 292 292 292 292 292 292 292 292 292 292 292 292 291 291 291 291 290 290 290 290 290
290 290 289 289 289 289 288 288 288 288 288 288 288 288 288 288 288 288 289 289 289 289 289 289 289 290 290 290 290 290 290 290 290 290 290 290 290 290 290 290 290 290 290 290 289 290 290 290 290 290 290 290 291 291 291 291 291 291 291 291 292 292 292 292 292 292 292 292 292 292 292 292 292 292 292 291 291 291 291 290 290 290 290 290 290 289
289 288 288 288 288 288 288 288 288 288 288 288 288 288 288 288 288 288 288 289 289 289 289 289 289 290 290 290 290 290 290 290 290 290 290 290 290 290 290 290 290 290 290 290 290 290 290 290 290 290 290 290 291 291 291 291 291 291 291 291 292 292 292 292 292 292 292 292 292 292 292 292 291 291 291 291 291 291 290 290 290 290 289 289 289 289
288 287 287 287 287 287 287 287 287 288 287 287 287 288 288 288 288 288 288 288 289 289 289 289 289 289 290 290 290 290 290 290 290 290 290 290 290 290 290 290 290 290 290 290 290 290 290 290 290 290 290 290 291 291 291 291 291 291 291 291 291 291 291 291 291 292 292 291 291 291 291 291 291 291 291 291 291 290 290 290 290 290 289 289 289 289
287 287 287 287 287 287 287 287 287 287 287 287 287 287 287 288 288 288 288 288 288 289 289 289 289 289 289 289 289 290 290 290 290 290 290 290 290 290 290 290 290 290 290 290 290 290 290 290 290 290 290 290 290 290 290 290 291 291 291 291 291 291 291 291 291 291 291 291 291 291 291 290 290 290 290 290 290 290 290 290 290 289 289 289 289 289
287 287 287 287 287 287 287 287 287 287 287 287 287 287 287 287 288 288 288 288 288 289 289 289 289 289 289 289 289 289 289 289 289 289 290 290 290 290 290 290 290 290 290 290 290 290 290 290 290 290 290 290 290 290 290 290 290 291 291 291 291 291 291 291 290 290 290 290 290 290 290 290 290 290 290 290 290 290 290 290 290 289 289 289 289 289
286 286 286 286 286 286 287 287 287 287 287 287 287 287 287 287 287 288 288 288 288 288 288 288 289 289 289 289 289 289 289 289 289 289 289 289 289 290 290 290 290 290 290 290 290 290 290 290 290 290 290 290 290 290 290 290 290 290 290 290 290 290 290 290 289 289 289 289 289 289 289 289 289 289 289 289 289 289 290 290 290 289 289 289 289 289
286 286 286 286 286 286 286 286 286 286 287 287 287 287 287 287 287 287 287 288 288 288 288 288 288 288 288 288 289 289 289 289 289 289 289 289 289 289 289 290 290 290 290 290 290 290 290 290 290 290 290 290 289 289 289 289 290 290 289 289 289 289 289 289 289 289 288 288 288 288 288 288 288 288 288 288 289 289 289 290 290 289 289 289 289 289
286 286 286 286 286 286 286 286 286 286 286 286 286 287 287 287 287 287 287 287 288 288 288 288 288 288 288 288 288 288 288 288 288 289 289 289 289 289 289 290 290 290 290 290 290 290 290 290 290 289 289 289 289 289 289 289 289 289 288 288 288 288 288 288 288 288 288 288 288 288 288 288 288 288 288 288 289 289 289 290 290 290 289 289 289 289
Wind_Speed
30 31 31 30 28 27 27 27 28 28 29 29 30 30 31 31 31 32 33 33 34 35 35 36 36 37 37 37 38 38 38 38 39 40 42 43 43 42 41 39 39 39 39 40 41 41 42 42 42 42 43 44 45 44 43 42 41 41 41 41 42 43 44 45 46 46 47 47 48 48 46 43 38 33 30 28 28 28 28 28 27 25 22 20 18 16
30 31 31 30 28 28 27 28 28 29 30 29 29 29 30 30 31 31 32 32 33 33 33 34 36 37 39 40 40 38 37 36 36 36 38 40 42 42 42 41 41 41 41 42 42 43 43 43 43 43 44 45 45 44 43 42 42 43 43 44 44 45 45 45 46 47 48 49 51 50 47 42 37 32 29 28 28 28 28 27 24 21 17 15 13 12
31 31 30 30 29 29 29 29 29 30 30 30 28 27 27 29 30 32 34 34 34 33 33 34 37 39 41 41 40 38 36 35 33 32 33 35 38 40 41 42 42 43 43 44 44 44 44 44 44 44 45 46 45 44 43 43 44 44 45 46 46 47 47 47 47 48 50 52 53 51 47 41 35 31 29 28 28 28 27 25 21 17 13 11 10 10
31 30 30 30 29 29 30 30 30 31 31 30 28 27 26 27 28 30 33 34 34 33 33 34 36 38 39 39 38 36 35 35 34 33 32 33 35 37 39 41 43 44 44 45 45 45 45 45 45 45 46 46 46 46 45 45 45 46 47 48 48 48 47 48 48 50 52 54 53 49 44 39 35 32 30 29 29 28 26 22 18 13 10 8 9 10
30 30 30 29 28 27 28 29 30 30 30 29 28 27 27 27 27 28 30 31 31 31 31 31 32 33 34 35 35 35 35 35 35 35 35 35 36 37 38 40 42 43 45 46 46 47 46 46 46 47 48 48 48 48 48 47 48 48 49 49 49 48 47 48 50 52 53 52 49 45 41 38 35 33 30 29 28 26 23 19 15 11 8 8 9 11
27 28 29 28 26 26 26 27 27 28 28 28 28 28 28 28 28 29 30 30 30 30 30 29 29 30 31 32 33 34 34 35 36 37 37 37 37 37 37 38 40 41 43 45 47 48 48 48 48 48 49 50 51 51 51 50 50 50 49 49 47 46 45 48 51 52 51 47 44 41 38 36 34 32 30 28 27 24 19 15 12 9 8 8 10 12
24 26 26 27 27 26 27 27 27 27 28 28 29 29 30 30 30 31 31 31 30 30 29 28 28 29 30 31 32 33 34 35 36 36 36 37 37 37 37 38 38 39 41 42 45 47 48 49 50 50 51 52 53 53 53 52 50 49 48 47 45 45 46 49 50 49 45 42 38 36 34 32 31 29 28 26 23 19 15 11 9 8 7 9 11 13
23 24 25 25 26 27 27 28 28 29 29 30 31 31 31 31 32 32 32 31 31 30 30 30 30 30 32 33 33 34 34 34 35 35 36 36 36 37 37 38 39 39 40 41 42 44 46 47 49 51 52 53 54 54 53 50 48 46 45 45 45 46 47 48 46 43 39 35 32 30 29 28 27 26 25 22 19 14 11 8 7 7 7 9 12 14
21 22 23 24 25 26 27 28 29 30 31 32 32 32 32 32 32 32 32 31 31 30 30 31 32 32 32 33 33 33 33 33 34 34 35 36 36 37 37 38 39 39 39 40 41 42 43 44 46 48 51 52 53 52 50 47 44 43 44 45 46 46 45 43 39 35 32 29 27 26 25 25 24 23 21 18 15 11 8 7 7 7 8 10 12 15
20 21 22 23 24 26 27 29 30 30 31 31 31 30 30 30 30 30 30 29 30 30 30 30 31 31 31 31 31 31 31 32 32 33 34 35 36 37 37 38 38 38 39 39 39 40 41 41 43 44 46 48 49 48 46 44 42 42 43 44 43 41 39 36 32 29 27 26 25 25 24 23 22 20 18 15 12 9 7 7 7 8 9 11 13 16
17 18 20 22 23 24 26 27 28 29 29 28 28 28 27 27 27 27 27 26 27 27 27 27 27 28 28 29 29 29 30 30 31 32 34 35 35 36 37 38 38 38 37 37 37 37 37 37 37 37 38 39 40 40 40 39 39 39 39 38 36 34 32 30 28 26 25 25 24 24 23 22 20 18 15 13 10 8 7 7 8 9 10 12 15 17
14 16 17 19 21 22 23 24 25 25 25 25 25 24 25 25 25 24 24 24 24 24 24 24 24 25 25 27 27 27 28 29 30 31 32 34 36 37 37 38 38 37 36 35 33 32 31 30 29 28 28 29 30 31 32 33 33 33 32 30 29 28 27 26 25 25 24 23 23 22 20 19 17 15 13 11 9 8 7 8 9 10 12 14 16 18
12 13 14 15 17 18 19 20 21 21 22 22 22 22 23 22 22 21 21 21 21 22 22 22 22 22 23 24 25 25 26 27 28 29 29 30 31 32 33 32 32 31 30 29 27 26 25 25 24 23 23 23 24 25 25 26 27 26 26 25 25 25 24 24 23 22 21 20 19 18 16 15 13 11 10 9 8 7 8 8 10 11 13 15 17 18
11 11 12 12 14 15 16 17 18 18 19 19 19 19 19 19 19 18 18 18 19 19 20 21 21 22 22 22 23 23 24 25 25 25 25 25 24 24 24 24 23 22 21 21 20 20 20 20 20 20 20 20 20 21 22 22 23 23 23 23 23 22 22 21 21 20 18 17 16 14 12 11 10 9 8 7 7 7 8 9 11 12 14 16 17 18
11 11 11 11 12 12 12 13 14 14 15 16 16 16 16 16 17 17 16 16 17 18 18 20 21 22 22 21 21 21 21 22 22 21 20 19 18 18 17 17 16 15 15 15 16 16 16 17 17 17 17 18 18 18 19 19 20 20 20 20 20 20 19 18 18 17 16 14 13 11 10 9 8 7 7 7 7 8 9 10 12 14 15 17 17 18
9 9 9 9 9 9 9 10 10 11 12 13 13 13 13 14 15 15 15 15 16 17 18 20 21 21 20 19 19 19 18 18 18 17 16 14 14 13 13 13 12 12 12 12 12 13 13 14 15 15 16 16 16 16 17 17 17 18 18 18 17 17 16 16 15 14 13 12 10 9 8 7 7 6 7 7 8 9 11 12 14 15 16 17 17 17
10 10 9 9 8 8 7 7 8 8 9 9 10 11 11 12 12 13 13 14 15 16 18 19 21 21 20 17 16 16 16 15 14 14 13 12 12 11 11 12 11 11 11 11 12 12 12 13 14 14 15 15 15 15 15 15 15 16 16 16 16 15 14 14 13 12 11 10 9 8 7 6 6 6 7 8 9 11 13 14 15 16 16 16 16 16
13 12 11 10 9 8 6 6 6 6 7 7 7 8 9 10 11 12 12 13 14 16 17 18 20 21 20 18 16 14 14 14 13 12 12 12 11 11 12 12 12 12 12 12 13 13 13 14 14 14 14 14 14 14 14 14 14 14 14 14 14 13 12 12 11 10 9 8 7 6 6 6 6 7 8 9 11 13 14 15 15 15 15 15 15 15
12 12 11 11 10 9 8 8 7 7 7 6 6 6 6 8 9 11 12 13 14 15 16 17 18 19 20 19 17 15 14 14 14 13 12 12 13 13 13 13 13 14 14 14 14 14 14 14 14 14 14 14 14 13 13 13 13 13 12 12 12 11 10 9 8 7 7 6 6 6 6 6 6 7 9 10 12 13 14 15 15 14 14 15 15 15
10 10 9 9 9 9 9 9 9 8 8 7 7 5 4 5 6 8 10 12 13 14 15 16 16 17 17 17 17 16 15 15 15 14 14 14 15 15 15 14 15 15 14 14 14 13 13 13 13 13 12 12 12 12 11 11 11 10 10 10 9 9 8 7 7 6 6 6 6 6 6 6 7 9 10 11 12 13 14 14 14 14 15 15 15 16
7 7 7 7 7 7 7 8 8 7 7 7 6 6 5 5 4 5 6 8 10 11 13 14 15 15 16 16 16 16 16 16 16 15 15 14 15 15 14 13 13 13 12 12 11 11 11 10 10 10 9 10 10 9 9 9 9 9 9 8 8 7 7 7 7 6 6 6 6 6 7 8 8 10 11 12 13 13 14 14 15 15 15 15 16 16
6 6 5 5 6 7 7 7 6 6 6 5 5 5 5 5 5 4 4 4 5 7 8 10 12 13 14 15 15 15 16 16 15 14 13 13 13 13 12 11 11 11 11 10 9 9 9 9 8 8 8 9 9 10 9 9 9 9 9 9 8 8 8 8 7 7 7 7 7 8 8 9 10 10 11 12 13 13 14 14 15 15 16 16 17 17
3 3 3 3 3 4 5 5 5 5 4 4 4 4 4 5 5 5 5 5 4 4 5 6 8 9 11 12 13 13 14 14 13 12 12 13 13 13 11 11 11 12 12 11 10 10 10 10 10 10 10 11 12 12 11 11 11 11 10 10 9 9 9 8 8 8 8 8 8 9 9 10 10 11 11 12 13 13 14 15 16 16 17 17 17 17
2 2 2 2 2 2 2 2 3 3 3 2 3 3 3 4 6 7 7 6 6 7 7 7 8 9 10 10 11 11 11 11 11 11 12 12 13 12 12 12 12 13 13 12 12 12 12 12 12 12 13 13 13 13 13 12 12 11 11 10 10 9 9 8 8 8 8 8 9 9 9 10 10 11 11 12 13 14 15 16 17 17 17 17 17 17
3 3 3 3 3 2 3 3 3 3 3 3 2 3 4 5 6 7 7 7 8 8 8 8 9 10 10 10 10 10 10 10 10 11 11 12 12 12 13 12 12 13 13 13 13 13 13 13 13 13 13 13 13 13 12 12 11 11 10 9 9 9 8 8 8 8 8 8 9 9 9 10 10 11 11 12 13 15 16 16 17 17 17 17 17 17
4 4 3 3 3 3 3 3 4 4 4 4 4 4 5 5 6 7 7 7 7 7 8 8 9 9 8 8 8 8 8 8 9 10 10 11 12 12 12 12 12 12 12 13 13 13 13 13 13 13 13 13 13 12 11 11 10 10 9 9 8 8 8 8 8 8 8 8 8 8 9 9 10 11 12 13 14 15 16 16 16 16 16 16 16 17
5 4 4 4 4 4 4 4 4 5 5 5 6 6 6 7 7 8 8 7 7 7 8 8 8 8 7 7 7 7 7 7 8 9 10 11 11 12 12 12 12 12 12 12 13 13 14 13 13 12 12 12 12 11 10 10 9 9 9 8 8 8 8 8 8 8 8 8 8 9 9 10 11 12 13 14 15 15 15 15 15 16 16 16 17 17
5 5 5 5 5 5 5 5 5 6 6 6 7 7 8 8 8 8 8 7 7 8 8 8 7 7 7 7 7 7 7 7 8 9 9 11 12 12 11 12 12 13 13 13 13 14 14 13 13 12 12 12 11 10 10 9 9 9 9 8 8 8 8 8 8 8 8 9 9 10 11 11 12 13 13 14 14 14 14 15 15 16 17 17 17 18
6 6 6 6 6 6 6 6 6 7 7 7 8 8 9 9 9 9 7 7 7 8 8 7 7 7 7 7 7 8 8 9 9 9 10 12 13 13 12 12 14 14 14 13 14 14 14 13 12 12 12 11 11 10 10 9 9 9 9 9 9 8 8 8 9 9 9 10 11 11 12 12 12 13 13 13 14 14 15 15 16 17 18 18 19 19
7 7 7 6 6 6 6 7 7 8 8 8 8 9 9 10 10 10 9 9 8 7 7 7 7 7 7 8 8 9 10 10 10 10 11 13 13 13 12 13 14 15 14 14 14 14 14 13 13 12 12 11 11 10 10 10 10 10 9 9 9 9 9 9 10 10 10 11 12 12 12 12 12 13 13 13 14 15 15 16 17 18 19 19 20 20
8 7 7 6 6 6 6 7 7 7 8 8 8 8 9 10 10 11 11 10 9 8 7 7 7 7 8 8 9 10 11 11 11 11 12 13 13 12 12 13 14 15 14 14 14 14 13 13 13 12 12 11 11 10 10 10 10 10 10 10 10 10 10 10 11 11 12 12 12 12 13 13 13 13 14 14 15 16 16 17 18 19 20 20 20 21
8 8 7 6 6 6 6 6 6 7 7 7 7 8 9 9 10 10 10 11 10 10 9 8 8 8 9 10 10 10 10 10 11 12 12 12 12 12 12 13 14 15 14 14 14 14 12 12 12 12 11 11 10 10 10 11 11 11 11 11 11 11 11 11 12 12 12 12 13 13 13 13 13 14 14 15 16 16 17 18 19 20 21 21 21 22
9 8 7 6 6 6 6 6 6 6 6 7 7 8 9 9 10 10 10 11 11 11 11 11 11 10 11 11 11 11 10 10 11 12 12 12 12 12 12 14 15 14 14 13 14 14 12 12 11 11 11 10 10 10 11 11 11 12 12 12 12 12 12 12 12 13 12 12 13 13 13 14 14 15 15 16 16 17 18 19 20 21 21 22 22 23
9 8 8 7 7 7 7 7 7 7 7 8 8 9 9 10 10 10 11 11 11 12 12 12 12 12 12 12 12 12 11 11 11 12 13 12 11 11 12 14 14 14 13 12 12 12 12 11 10 10 10 10 10 10 11 12 12 13 13 12 12 12 12 12 12 12 12 12 13 13 14 14 15 15 16 16 17 18 19 20 21 21 22 23 23 23
10 9 9 9 9 9 8 8 8 8 8 9 9 10 10 10 10 10 11 11 12 12 12 12 12 13 13 13 12 12 11 11 11 12 12 11 10 11 12 13 13 12 12 11 11 11 11 10 10 9 10 10 11 11 12 13 13 14 14 13 13 13 12 12 12 12 13 13 13 14 14 15 16 16 17 17 18 19 20 21 21 22 23 23 24 24
11 10 10 10 10 10 10 9 9 9 9 9 10 10 10 10 10 10 10 11 11 11 12 12 12 12 13 13 13 13 12 11 12 12 12 10 10 10 11 12 12 11 11 11 10 10 10 10 10 10 11 12 12 13 13 14 14 14 14 14 13 13 12 12 12 13 13 14 14 15 15 16 16 17 18 18 19 20 21 21 22 23 23 24 24 25
11 11 11 10 10 10 10 10 10 9 9 10 10 10 10 10 10 10 10 10 11 11 11 11 11 12 12 12 12 12 12 12 12 11 11 10 10 10 10 10 11 11 11 10 10 10 10 11 11 12 12 13 14 14 14 15 15 15 15 14 14 13 13 13 13 13 14 14 15 16 16 17 17 18 19 19 20 21 21 22 23 23 24 24 25 25
11 11 11 11 10 10 10 10 10 10 10 10 10 10 10 10 10 10 10 10 10 10 10 10 10 10 11 11 11 11 11 11 11 11 10 9 9 9 9 9 10 10 10 10 10 10 11 11 12 13 13 14 14 15 15 16 16 16 16 15 14 14 14 14 14 14 15 15 16 16 17 18 18 19 20 20 21 22 22 23 23 24 25 25 26 26
11 11 11 10 10 10 10 10 10 10 10 10 10 10 10 9 9 10 10 10 10 10 10 10 10 10 10 10 9 9 10 10 10 9 9 9 8 8 8 9 9 10 10 11 11 11 11 12 12 13 14 14 14 15 15 15 16 16 16 15 15 15 15 15 15 15 15 16 17 17 18 19 20 20 21 21 22 22 23 23 24 24 25 25 26 26
10 10 10 10 10 10 10 10 10 10 10 10 10 9 9 9 9 10 10 10 10 9 9 9 9 9 9 9 9 9 9 9 9 9 8 8 8 8 8 9 9 10 11 11 11 11 11 12 12 12 13 13 13 14 14 15 15 16 16 15 15 15 16 16 16 16 17 17 18 19 19 20 21 21 22 22 22 23 23 24 24 25 25 26 26 26
10 10 10 9 9 9 9 9 9 9 9 9 9 9 9 9 9 9 9 9 9 9 9 9 9 9 10 9 9 9 9 9 9 8 8 8 8 8 9 9 10 11 11 11 11 11 11 12 12 12 12 12 12 13 13 13 14 15 15 16 16 16 16 17 17 17 18 18 19 20 20 21 21 22 22 22 23 23 24 24 25 25 25 26 26 26
9 9 9 8 8 8 8 8 8 8 8 8 8 9 9 8 8 8 9 9 9 9 9 9 9 9 9 9 10 10 9 9 9 9 9 9 9 9 9 10 10 11 11 11 12 12 12 12 13 13 13 13 13 13 13 13 14 15 16 16 17 17 17 18 19 19 19 19 20 20 21 21 22 22 22 23 23 24 24 25 25 25 25 26 26 26
8 8 8 8 8 8 8 8 8 8 8 8 8 8 8 8 8 8 8 8 8 8 9 9 9 9 9 9 9 10 10 9 9 9 9 9 9 10 10 10 11 11 11 12 12 12 12 12 13 14 14 14 14 14 14 14 15 16 17 18 18 18 18 19 20 20 20 20 20 21 21 22 22 23 23 23 23 24 24 24 25 25 25 25 25 25
7 7 7 8 8 8 8 7 7 7 7 7 7 7 7 7 7 7 7 8 8 8 8 8 8 9 9 9 9 10 10 9 9 9 9 10 10 10 10 10 11 11 11 11 12 12 12 13 13 14 14 15 15 16 16 16 17 17 18 19 19 19 19 19 20 21 21 21 21 21 22 22 23 23 23 23 23 23 24 24 24 24 24 24 24 24
7 7 7 7 7 7 7 7 7 7 7 7 7 7 7 7 7 7 7 7 7 8 8 8 8 8 9 9 9 10 10 9 9 9 10 10 10 10 10 10 10 10 11 11 11 11 12 13 13 14 14 15 15 16 16 17 18 18 19 19 20 20 20 21 21 21 21 22 22 22 22 23 23 23 23 23 23 23 23 23 22 22 23 23 23 23
7 7 7 7 7 7 7 7 7 7 7 7 7 7 7 7 6 6 7 7 7 7 7 8 8 8 8 9 9 9 9 9 9 9 10 10 10 10 10 10 10 10 10 10 10 10 11 12 12 13 14 14 15 15 16 17 18 18 19 19 20 20 20 20 21 21 22 22 22 23 23 24 24 24 24 23 23 23 22 22 22 22 22 22 23 22
7 7 7 7 7 7 7 7 7 7 7 7 7 7 7 7 6 6 6 7 7 7 7 7 8 8 8 8 9 9 8 9 9 9 9 9 9 10 10 10 10 10 10 10 10 10 11 11 12 13 13 14 14 15 16 17 18 18 19 19 20 20 20 20 21 21 22 22 22 23 23 24 24 24 24 24 23 23 22 23 23 23 22 22 21 21
7 7 7 7 7 7 7 7 7 7 7 7 7 7 7 7 6 6 6 7 7 7 7 7 7 8 8 8 8 8 8 8 8 9 9 9 9 10 10 10 10 11 10 10 10 11 11 12 13 13 14 14 15 16 17 18 18 18 19 19 19 19 20 20 20 21 21 22 22 23 23 23 23 24 24 24 24 23 23 23 22 22 22 21 20 19
8 8 8 8 7 7 7 7 7 7 7 7 7 7 7 7 7 7 7 7 7 7 7 7 7 7 8 8 8 8 8 8 8 9 9 10 10 10 11 11 11 11 11 11 11 12 12 13 14 14 15 15 15 16 17 18 18 18 18 18 18 19 19 19 20 20 21 21 22 22 23 23 24 24 24 24 24 24 23 22 22 21 21 20 19 18
8 8 8 8 8 8 8 8 8 8 8 8 8 8 8 8 8 7 7 7 7 7 7 7 8 8 8 8 8 9 9 9 9 9 10 10 11 11 12 12 12 12 12 12 12 12 13 14 14 15 16 16 15 15 15 16 17 17 17 17 17 18 18 19 19 20 21 21 22 22 23 23 23 24 23 23 23 23 23 22 22 21 20 19 18 17
9 9 9 9 9 9 9 9 9 9 9 9 9 9 9 9 8 8 8 8 8 8 8 8 8 9 9 9 9 9 9 10 10 10 11 12 12 13 13 13 12 12 13 13 13 13 14 15 15 15 15 15 15 14 13 14 15 16 16 16 17 17 18 18 20 21 21 22 22 23 23 23 23 23 23 23 23 22 22 22 21 20 19 18 17 16
Wind_Direction
251 251 248 245 242 242 243 245 246 246 245 244 244 244 244 244 245 246 247 248 250 252 253 254 254 254 253 251 250 248 246 245 244 242 240 238 236 234 233 233 234 235 237 238 240 241 242 243 244 244 244 243 242 240 240 240 241 241 243 244 246 248 249 251 252 253 254 255 254 251 248 246 244 244 247 249 251 252 252 252 253 253 254 256 259 263
248 247 245 244 243 244 245 247 248 246 244 243 244 246 247 247 248 250 251 252 254 256 257 257 257 256 255 254 253 252 251 249 247 244 241 238 236 234 233 234 235 237 238 239 240 241 242 243 244 244 244 243 241 238 237 239 241 243 244 245 245 246 248 249 251 252 253 253 251 248 245 243 243 245 248 250 252 253 253 253 253 253 255 258 263 268
245 244 243 243 244 244 246 249 250 249 246 246 248 251 252 253 253 253 254 255 256 258 260 259 258 257 255 255 255 255 255 254 252 250 246 242 239 236 236 237 238 240 240 240 240 241 242 243 244 244 244 242 240 238 237 237 240 242 242 242 242 243 244 246 248 250 251 250 247 244 241 241 242 245 248 251 253 253 253 252 251 252 255 261 267 271
245 244 246 246 245 244 245 248 250 251 251 251 254 257 260 260 259 258 257 257 257 259 261 261 260 258 257 257 258 259 260 259 259 259 256 252 248 245 243 243 244 246 246 245 243 242 242 244 245 245 243 241 239 238 237 237 237 238 238 238 238 239 240 242 245 246 247 245 242 239 238 239 241 245 248 251 252 251 250 249 248 249 254 262 268 271
245 247 249 248 246 244 244 246 248 250 253 256 259 261 263 264 264 262 261 261 261 261 263 264 264 264 262 262 263 264 265 265 265 264 262 259 256 253 251 251 252 253 253 250 247 244 244 244 245 244 243 241 239 238 237 235 234 234 234 234 234 236 239 241 243 242 241 238 236 234 234 237 240 243 247 249 250 248 246 245 244 246 252 261 266 270
246 248 250 250 249 247 246 246 248 251 255 258 260 261 262 262 262 262 262 262 262 263 264 266 268 269 269 269 269 268 268 268 267 266 263 260 257 254 252 251 251 252 252 251 248 246 244 244 244 243 241 240 238 237 236 235 233 232 232 233 234 237 241 243 241 238 235 232 230 230 232 235 237 241 245 246 246 244 241 239 240 243 250 259 265 268
248 248 249 250 250 249 248 248 249 251 253 255 257 258 258 258 259 259 260 260 261 262 263 265 267 268 269 269 269 269 268 268 267 265 262 259 255 252 248 245 243 241 241 241 241 241 241 242 242 241 240 238 237 235 234 233 232 231 233 235 237 241 243 242 238 233 230 228 228 229 231 233 236 239 242 242 241 238 235 235 237 243 252 259 263 265
251 250 250 250 250 250 250 249 250 251 252 252 253 253 254 255 256 256 256 256 257 258 259 261 262 264 265 266 266 266 267 266 265 263 260 257 253 249 245 241 237 233 231 229 229 230 232 234 236 237 237 236 234 232 230 229 230 231 234 236 238 239 239 236 232 229 227 228 230 232 234 236 237 239 239 237 234 232 230 233 238 246 253 259 262 264
253 253 253 253 252 251 251 251 252 253 253 251 250 250 251 252 253 254 253 252 253 254 256 257 259 260 261 262 263 264 264 263 261 259 256 252 249 245 240 236 232 228 224 221 219 218 219 221 223 226 228 229 228 227 226 226 228 231 233 234 234 233 232 229 227 227 230 233 236 239 240 240 239 237 235 232 229 227 227 232 240 248 255 260 262 264
251 254 255 255 255 254 253 252 253 254 253 252 250 250 250 250 251 252 252 251 252 254 255 256 257 259 260 260 261 261 261 260 258 254 250 247 243 240 235 230 225 220 217 214 212 210 209 209 210 212 214 217 218 220 221 223 226 228 228 228 227 226 225 224 226 229 234 238 240 242 242 240 238 234 231 228 225 224 226 233 242 250 257 261 263 263
249 251 253 254 255 255 254 252 253 254 254 253 251 250 250 249 250 250 252 252 253 254 255 256 257 258 257 257 257 257 256 255 253 251 247 244 240 235 230 225 219 214 210 208 206 204 203 203 203 204 205 208 210 213 216 219 221 222 222 221 221 221 222 224 227 231 235 237 239 239 238 236 233 230 227 224 223 224 229 237 246 254 259 262 262 262
246 249 251 252 253 254 254 253 253 253 253 251 249 248 248 249 249 249 250 252 253 253 254 256 256 255 253 250 249 248 247 244 242 240 239 236 232 228 222 218 213 210 206 204 202 200 200 201 202 203 205 207 210 212 214 216 217 218 218 219 220 222 224 227 230 232 233 234 234 233 231 229 227 225 223 223 224 228 234 242 249 256 259 260 260 260
239 243 246 248 250 251 252 251 250 249 250 249 248 247 247 249 249 250 250 252 252 252 252 251 250 248 246 243 239 236 232 230 228 227 224 221 219 216 212 209 207 204 203 202 201 201 202 204 206 209 212 214 216 216 217 217 218 218 220 221 223 225 227 229 230 230 229 228 227 225 224 222 222 222 224 226 230 235 241 247 252 255 257 258 258 259
227 231 235 239 243 245 246 247 247 247 247 247 248 249 249 250 250 250 250 249 248 247 247 245 241 236 236 232 230 227 223 219 217 216 212 210 209 208 207 206 206 206 206 208 209 211 212 214 216 218 220 221 222 222 221 221 221 222 224 225 227 228 228 228 227 225 223 221 218 217 216 217 219 223 228 233 240 245 249 252 255 256 257 257 257 257
215 217 224 228 231 233 235 237 241 243 243 244 244 245 245 245 246 247 246 243 241 240 240 239 234 228 225 222 221 220 218 214 211 208 205 204 206 207 207 209 212 214 216 219 222 224 225 226 228 229 229 229 228 227 226 226 225 226 226 227 227 226 225 223 221 218 216 214 212 211 212 215 220 227 235 243 249 254 256 257 257 257 256 256 256 257
193 194 198 200 204 208 213 217 224 229 232 234 236 238 239 239 241 243 242 241 239 236 232 227 221 217 215 215 216 215 213 211 209 207 204 204 205 207 207 212 216 220 223 227 231 235 237 239 240 239 238 236 234 232 230 228 228 227 226 225 223 221 219 216 215 213 212 211 211 212 214 218 224 232 242 250 256 258 259 259 257 256 255 255 257 259
149 151 154 156 160 168 180 188 199 207 212 217 222 227 232 236 239 241 241 240 236 232 229 226 219 211 208 209 211 211 210 207 207 207 206 207 210 211 211 216 223 228 231 235 239 244 249 251 250 247 243 239 235 232 230 227 226 224 223 220 218 216 214 212 211 210 211 212 214 216 220 225 232 240 249 255 259 260 259 258 257 257 257 258 260 263
123 123 124 125 126 129 137 145 155 167 176 185 198 210 218 225 231 235 238 236 232 229 228 227 224 218 213 210 210 212 212 208 207 209 210 216 221 224 225 229 234 240 244 245 246 249 253 253 250 246 241 236 232 229 225 223 220 219 217 215 213 212 210 209 209 210 211 214 218 223 230 237 244 251 256 260 261 262 262 261 261 261 263 264 266 268
112 109 106 102 100 101 103 107 113 120 129 142 158 178 198 210 218 226 231 231 230 228 227 226 226 225 222 219 219 221 220 217 217 218 222 231 237 241 244 247 252 255 255 251 249 248 248 246 242 237 232 229 226 223 220 218 216 216 215 213 212 211 211 210 211 213 216 220 226 234 243 251 256 260 262 264 265 266 267 268 268 269 269 270 270 270
109 104 99 94 93 93 94 94 94 96 101 107 114 127 156 178 198 213 221 226 228 230 230 230 230 229 229 229 229 231 233 233 233 235 238 245 249 252 254 257 259 259 256 249 244 241 238 233 228 224 223 222 222 220 219 219 219 219 219 218 217 217 218 218 220 224 228 232 238 245 251 257 260 263 265 267 268 270 272 273 274 274 273 273 272 270
111 107 106 105 102 98 96 95 92 88 85 87 94 102 113 132 158 186 204 217 224 228 231 232 234 236 237 238 239 242 244 246 246 247 248 249 251 252 252 253 253 249 242 235 231 229 226 223 220 219 222 225 227 228 229 230 232 233 234 234 233 233 232 232 234 235 237 239 242 246 251 255 258 261 264 267 269 271 273 275 275 274 273 271 270 268
115 112 112 111 110 107 105 105 102 94 85 82 92 107 117 126 137 150 164 188 208 221 228 233 236 238 241 242 243 245 248 249 250 249 248 246 242 239 239 237 233 226 218 212 212 215 219 220 222 226 233 239 242 244 244 244 245 246 245 244 243 242 239 238 237 237 237 239 241 244 247 251 255 258 261 264 267 269 271 272 272 271 270 268 266 266
139 134 131 130 125 121 120 119 117 112 107 93 98 115 127 136 138 142 151 163 175 187 201 215 222 227 231 235 237 239 241 243 243 242 237 235 230 225 223 219 212 205 200 199 204 212 218 222 226 231 236 241 244 245 245 244 244 244 243 241 240 239 238 237 237 237 238 239 241 243 246 250 253 256 259 261 264 266 267 268 267 266 265 264 264 265
194 194 196 197 193 184 175 166 155 147 142 129 122 130 150 158 162 165 170 171 170 171 178 188 199 210 218 223 227 229 232 234 233 231 226 224 221 217 213 210 204 198 196 199 205 213 219 222 226 229 233 236 237 238 239 238 238 237 237 236 236 236 236 237 238 239 240 242 244 246 249 251 254 256 258 260 261 262 262 261 261 261 261 263 264 267
214 215 216 221 229 233 235 231 225 218 210 203 193 183 179 178 176 174 172 172 173 176 183 193 202 208 212 216 219 221 223 226 225 223 219 217 213 209 207 207 203 200 200 204 211 218 223 225 227 229 232 233 234 234 233 233 233 233 233 234 234 235 236 238 240 242 244 246 248 250 251 253 255 256 256 257 256 256 256 257 258 259 262 265 268 271
210 209 208 214 223 233 235 235 233 229 225 217 211 205 201 197 194 189 185 183 184 188 195 200 201 201 203 208 210 211 212 216 216 214 211 211 210 208 206 209 209 208 209 213 218 224 228 230 230 231 233 234 235 234 233 233 234 234 233 234 235 236 237 239 242 244 246 247 249 250 250 251 251 251 252 252 252 252 254 256 259 263 267 270 274 276
209 205 203 205 210 216 221 223 222 220 217 211 205 201 201 206 204 197 191 189 194 202 203 199 193 190 196 200 199 197 198 203 204 203 201 204 208 210 211 215 219 220 220 222 226 230 232 232 232 233 234 235 236 235 234 234 235 235 234 234 235 235 237 239 241 243 245 245 245 245 245 246 246 247 248 249 251 254 257 262 266 270 274 276 279 280
215 211 209 207 208 212 215 216 215 214 210 206 202 200 201 203 199 192 187 190 200 204 198 193 192 195 203 201 197 195 198 199 199 198 201 205 209 213 216 223 229 231 230 229 232 234 234 233 232 232 233 235 235 234 233 233 234 234 234 233 233 234 236 238 240 241 241 241 241 241 242 243 245 247 249 252 256 261 266 270 274 277 279 280 282 283
222 220 218 216 216 217 218 217 216 214 212 210 206 204 203 201 194 186 185 195 203 203 195 192 198 208 213 208 205 206 208 206 205 207 213 213 213 215 221 228 235 238 237 235 235 236 234 233 232 232 232 233 233 231 231 232 232 233 232 232 233 233 234 235 236 237 238 238 239 240 242 244 248 252 256 261 265 270 274 277 279 280 281 283 283 284
221 223 224 223 223 223 223 222 219 218 217 216 212 208 204 200 193 187 186 192 200 204 201 199 204 212 218 218 217 216 215 213 214 220 225 220 217 218 225 232 237 240 239 236 234 234 232 232 231 231 232 232 231 230 231 232 232 232 232 231 232 232 232 232 233 233 235 237 239 242 246 250 255 259 264 268 272 275 278 279 280 281 282 282 283 283
218 219 220 222 224 226 227 226 224 223 222 220 216 210 205 201 197 193 191 192 194 198 203 207 212 218 224 228 228 226 224 222 224 230 232 225 221 222 228 234 237 239 239 236 233 231 230 231 231 232 233 232 232 231 232 234 234 234 233 232 231 231 231 231 232 233 235 238 242 246 251 255 260 264 268 272 275 277 278 279 280 281 281 282 282 283
216 216 216 218 221 224 225 226 225 225 222 219 214 208 205 202 202 201 200 198 197 196 196 201 210 219 226 231 236 239 240 236 235 237 237 230 227 228 232 236 237 238 238 236 234 233 231 231 231 233 235 235 234 234 236 238 238 237 235 234 233 233 232 234 235 236 239 242 246 251 256 261 265 268 271 274 276 278 279 280 281 282 282 283 283 284
218 219 221 223 225 225 223 220 218 217 216 212 209 206 204 204 205 206 206 205 203 201 199 199 205 214 222 227 233 238 243 242 240 240 240 236 231 231 233 236 237 236 235 234 235 236 236 236 236 236 238 239 238 238 239 240 240 239 237 235 234 234 235 236 239 242 245 249 253 258 263 267 270 273 275 277 279 280 281 281 282 283 283 284 284 285
221 225 229 231 231 229 224 218 214 210 209 208 207 206 206 206 207 208 209 209 208 206 205 205 207 210 217 224 228 232 235 236 236 237 239 237 232 229 231 234 235 234 232 232 234 237 239 240 241 242 244 245 243 241 240 240 239 238 237 235 235 236 238 240 244 248 253 257 261 266 269 273 275 277 279 280 281 282 282 283 283 284 284 285 285 285
221 224 227 229 228 226 223 219 214 211 208 207 207 207 207 207 208 210 211 212 212 212 212 212 213 214 216 218 221 223 225 227 229 231 234 232 228 225 226 229 231 232 231 231 234 239 244 245 247 249 253 253 250 245 242 239 237 236 235 234 235 239 242 246 251 256 260 264 268 271 274 277 279 280 281 282 283 283 284 284 285 285 285 286 286 286
219 220 221 221 220 218 216 215 214 212 210 208 207 207 208 209 210 211 213 214 216 217 218 218 220 222 224 225 223 222 221 223 225 227 228 226 223 221 222 225 228 231 232 233 236 242 250 254 255 256 259 260 257 251 244 241 237 235 234 235 238 243 248 253 257 261 265 268 272 275 277 279 281 282 283 284 284 285 285 286 286 286 286 287 287 287
216 214 214 214 213 211 210 210 210 210 210 209 208 208 209 209 211 212 214 216 217 219 220 221 222 225 227 230 231 230 229 229 228 226 224 223 222 222 223 225 228 232 236 237 240 244 251 256 259 259 259 261 260 255 248 243 239 235 233 236 241 248 253 258 261 265 268 271 274 276 278 280 282 284 285 285 286 287 287 287 287 287 287 287 287 287
211 207 206 207 207 207 207 207 207 207 207 206 206 207 208 209 210 212 213 215 216 217 219 221 223 224 226 228 229 230 232 232 231 229 226 223 223 224 225 228 231 235 240 241 242 245 249 253 256 257 258 259 259 257 252 246 241 237 237 240 245 251 257 261 264 267 270 273 275 277 279 281 283 285 286 287 287 287 287 288 288 288 288 288 287 287
203 200 198 199 200 202 203 204 204 204 204 204 204 205 206 207 209 210 212 213 215 216 218 220 222 224 226 227 229 229 230 231 232 232 231 229 228 228 229 232 236 239 242 243 244 245 247 249 251 253 255 256 257 256 253 248 243 240 241 245 250 255 260 263 266 269 271 274 276 278 280 282 284 285 286 287 287 287 287 287 287 287 287 287 287 287
196 194 191 193 194 196 198 200 201 201 201 202 203 204 206 208 209 211 212 214 215 216 218 221 223 225 227 229 230 231 232 233 234 235 236 235 234 234 234 236 239 241 243 245 245 245 246 248 249 249 250 251 252 251 249 246 243 242 243 247 252 257 262 265 268 270 272 274 276 278 280 282 283 284 285 286 286 286 286 286 286 286 286 286 286 285
192 188 186 188 188 189 193 197 199 200 201 202 203 205 208 210 212 214 217 218 220 221 223 224 226 229 230 231 233 235 236 237 238 239 240 239 239 239 239 239 240 242 244 244 244 243 243 243 244 244 244 244 245 245 244 242 242 242 244 247 250 255 260 263 267 270 272 274 276 278 280 281 283 284 285 285 286 286 286 286 286 286 286 286 285 285
189 186 185 184 183 185 191 195 198 201 203 204 206 208 210 213 215 217 220 222 224 226 227 229 230 231 233 235 236 237 238 239 240 242 243 243 243 241 241 241 241 242 243 243 242 241 239 238 238 237 238 238 239 239 239 241 242 244 246 249 252 256 260 264 267 270 273 275 277 279 281 282 283 284 284 284 285 286 286 287 287 287 286 286 286 285
189 188 188 185 184 187 193 198 200 204 206 208 209 211 214 217 219 222 223 225 227 229 230 231 231 233 234 236 238 239 240 240 241 243 244 245 244 243 242 242 241 241 242 242 240 238 238 236 235 234 235 236 238 238 239 242 246 250 252 255 257 261 267 269 271 273 276 278 280 282 282 283 283 283 284 284 285 286 286 287 287 287 287 286 286 286
194 195 192 188 189 194 199 201 204 208 210 212 215 217 219 222 223 225 226 228 229 230 231 232 233 234 234 236 238 240 241 241 242 243 245 246 245 245 244 243 242 241 240 239 237 236 236 235 234 235 237 239 241 243 245 248 252 256 259 261 264 267 270 272 275 277 279 281 282 282 282 282 282 283 284 284 285 286 286 287 287 287 286 286 286 286
201 200 197 196 198 202 205 209 211 214 216 218 220 223 225 226 227 227 227 229 230 231 231 232 233 233 234 236 239 241 241 243 244 244 245 246 247 247 246 244 242 241 239 238 237 236 235 235 237 239 241 243 246 250 253 255 258 262 265 268 270 272 273 275 277 279 281 282 282 282 282 283 283 283 284 284 285 285 286 286 286 286 286 286 286 287
207 207 208 208 210 213 215 217 219 221 223 225 227 228 230 231 230 230 229 229 230 230 231 233 233 232 234 236 239 241 243 243 244 245 246 246 247 246 246 245 243 241 239 238 238 238 239 241 243 246 248 251 254 257 260 262 264 267 270 272 274 277 278 280 281 282 282 283 283 284 284 285 285 286 286 286 286 286 286 287 287 287 287 287 288 288
213 214 216 218 219 222 223 225 227 229 230 231 233 234 235 235 235 234 232 232 231 231 232 234 234 233 233 236 239 240 241 243 245 246 246 246 245 245 246 245 244 243 243 242 243 245 248 250 252 254 257 261 264 266 267 268 270 272 274 276 278 280 282 283 283 283 283 284 285 285 286 287 287 288 288 288 288 288 288 288 288 289 289 289 290 290
217 219 221 223 225 227 229 231 233 234 235 237 238 239 240 240 239 237 237 236 235 234 234 235 235 235 235 236 238 239 240 241 244 246 246 247 247 247 247 247 247 247 248 249 251 253 256 258 261 263 266 268 270 272 273 274 275 276 277 278 280 281 282 282 283 284 285 285 286 287 288 289 290 291 291 291 291 291 290 290 291 291 291 292 292 293
219 221 223 225 227 229 231 233 235 236 238 239 241 242 243 243 242 240 239 240 239 239 239 238 239 238 239 240 240 241 241 242 244 246 248 250 251 252 252 252 253 253 254 256 259 261 263 265 267 268 270 272 274 275 276 277 278 279 279 280 281 281 282 283 283 284 285 286 287 288 289 291 292 293 294 294 294 293 292 292 292 293 294 294 295 295
221 222 223 225 226 228 230 232 234 236 237 240 240 242 242 243 242 241 241 241 241 242 242 241 242 243 244 245 245 246 246 246 248 250 252 253 255 256 257 258 259 261 264 267 269 271 273 274 275 274 273 274 275 275 276 277 279 280 281 282 282 282 283 284 285 286 286 287 288 289 291 292 293 294 295 295 295 294 293 293 293 294 295 296 297 298
224 224 225 226 227 228 230 231 232 234 236 237 239 240 241 241 241 240 240 240 241 242 243 243 244 244 245 248 249 251 251 252 253 255 256 257 258 260 261 263 266 270 273 275 277 279 282 283 283 282 278 277 276 275 274 275 278 280 281 282 283 284 285 285 286 287 287 288 289 290 291 292 293 295 296 296 296 296 294 294 294 296 297 299 299 299